{"data":{"norad_id":64748,"intl_designator":"2025-144AA","name":"STARLINK-34536","alt_names":[],"object_type":"PAYLOAD","status":"ACTIVE","operator":null,"country":"US","launch_date":"2025-07-02","launch_site_code":"AFETR","launch_vehicle":null,"mission":null,"orbit_class":"UNKNOWN","rcs_meters":null,"size_class":null,"mass_kg":null,"dimensions":null,"purposes":["comms"],"wikipedia_slug":null,"has_3d_model":false,"image_url":null,"decayed_at":null,"tle_current":{"epoch":"2026-09-20T12:58:41.875680Z","epoch_age_seconds":124133,"freshness":"FRESH","line1":"1 64748U 25144AA  26263.54076245  .00017896  00000+0  53925-3 0  9994","line2":"2 64748  53.1601 355.3221 0000791  75.9959 284.1132 15.34415112 69552","mean_motion":15.34415112,"eccentricity":7.91e-5,"inclination_deg":53.1601,"raan_deg":355.3221,"arg_perigee_deg":75.9959,"mean_anomaly_deg":284.1132,"bstar":0.00053925,"rev_number":6955,"period_min":93.84683380256,"perigee_km":462.11721761686,"apogee_km":463.1994314372,"semimajor_km":6840.795324527,"source":"CELESTRAK","updated_at":"2026-09-21T09:00:35.414176Z"}}}